| time (UTC) | temp C | wind direction | speed KPH | gust KPH | rain 1hr cm | rain 24hr cm | rain mn cm | humidity % | barometer mb |
| 20260505052304 | 14 | 203 | 1.6 | 3.2 | 0.00 | 0.00 | 0.00 | 79 | 1010.2 |
| 20260505050802 | 15 | 315 | 0.0 | 0.0 | 0.00 | 0.00 | 0.00 | 75 | 1010.2 |
| 20260505041302 | 17 | 135 | 0.0 | 0.0 | 0.00 | 0.00 | 0.00 | 67 | 1009.5 |
| 20260505035802 | 17 | 225 | 1.6 | 3.2 | 0.00 | 0.00 | 0.00 | 67 | 1009.1 |
| 20260505034302 | 18 | 225 | 1.6 | 1.6 | 0.00 | 0.00 | 0.00 | 64 | 1008.8 |
| 20260505032803 | 19 | 180 | 0.0 | 1.6 | 0.00 | 0.00 | 0.00 | 62 | 1008.8 |
| 20260505031302 | 20 | 225 | 1.6 | 3.2 | 0.00 | 0.00 | 0.00 | 60 | 1008.5 |
| 20260505025802 | 21 | 248 | 1.6 | 3.2 | 0.00 | 0.00 | 0.00 | 58 | 1008.1 |
| 20260505024302 | 21 | 180 | 3.2 | 3.2 | 0.00 | 0.00 | 0.00 | 56 | 1008.1 |
| 20260505022802 | 22 | 225 | 1.6 | 3.2 | 0.00 | 0.00 | 0.00 | 54 | 1008.1 |
| 20260505021302 | 22 | 180 | 1.6 | 3.2 | 0.00 | 0.00 | 0.00 | 52 | 1008.1 |
| 20260505015802 | 23 | 180 | 4.8 | 4.8 | 0.00 | 0.00 | 0.00 | 50 | 1008.1 |
| 20260505014302 | 23 | 225 | 3.2 | 6.4 | 0.00 | 0.00 | 0.00 | 46 | 1008.1 |
| 20260505012802 | 25 | 180 | 3.2 | 6.4 | 0.00 | 0.00 | 0.00 | 42 | 1008.1 |
| 20260505011302 | 24 | 203 | 3.2 | 9.7 | 0.00 | 0.00 | 0.00 | 42 | 1008.1 |
| 20260505004302 | 26 | 203 | 3.2 | 6.4 | 0.00 | 0.00 | 0.00 | 39 | 1008.1 |
| 20260505002801 | 26 | 135 | 1.6 | 8.0 | 0.00 | 0.00 | 0.00 | 38 | 1007.8 |
| 20260505001302 | 26 | 315 | 1.6 | 6.4 | 0.00 | 0.00 | 0.00 | 38 | 1008.1 |
| 20260504235802 | 26 | 338 | 1.6 | 8.0 | 0.00 | 0.00 | 0.00 | 40 | 1008.1 |
| 20260504234302 | 25 | 135 | 4.8 | 9.7 | 0.00 | 0.00 | 0.00 | 40 | 1008.1 |
| 20260504232802 | 25 | 270 | 3.2 | 9.7 | 0.00 | 0.00 | 0.00 | 42 | 1008.1 |
| 20260504231303 | 26 | 203 | 4.8 | 9.7 | 0.00 | 0.00 | 0.00 | 40 | 1008.5 |
| 20260504225802 | 26 | 293 | 4.8 | 9.7 | 0.00 | 0.00 | 0.00 | 37 | 1008.5 |
| 20260504224302 | 26 | 270 | 3.2 | 8.0 | 0.00 | 0.00 | 0.00 | 38 | 1008.5 |
| 20260504222803 | 26 | 338 | 1.6 | 8.0 | 0.00 | 0.00 | 0.00 | 38 | 1008.8 |
| 20260504221801 | 26 | 293 | 1.6 | 6.4 | 0.00 | 0.00 | 0.00 | 37 | 1008.8 |
| 20260504220302 | 26 | 113 | 3.2 | 6.4 | 0.00 | 0.00 | 0.00 | 37 | 1008.8 |
| 20260504214802 | 26 | 225 | 4.8 | 6.4 | 0.00 | 0.00 | 0.00 | 36 | 1008.8 |
| 20260504213302 | 26 | 180 | 3.2 | 6.4 | 0.00 | 0.00 | 0.00 | 36 | 1009.1 |
| 20260504211802 | 26 | 225 | 6.4 | 8.0 | 0.00 | 0.00 | 0.00 | 38 | 1009.1 |
| 20260504210302 | 25 | 203 | 4.8 | 8.0 | 0.00 | 0.00 | 0.00 | 40 | 1009.1 |
| 20260504204802 | 25 | 113 | 3.2 | 4.8 | 0.00 | 0.00 | 0.00 | 40 | 1009.1 |
| 20260504203301 | 26 | 203 | 4.8 | 9.7 | 0.00 | 0.00 | 0.00 | 38 | 1009.1 |
| 20260504201802 | 25 | 180 | 1.6 | 6.4 | 0.00 | 0.00 | 0.00 | 42 | 1009.1 |
| 20260504200402 | 25 | 203 | 3.2 | 6.4 | 0.00 | 0.00 | 0.00 | 41 | 1009.5 |
| 20260504194802 | 24 | 23 | 3.2 | 4.8 | 0.00 | 0.00 | 0.00 | 41 | 1009.5 |
| 20260504193302 | 25 | 270 | 4.8 | 6.4 | 0.00 | 0.00 | 0.00 | 43 | 1009.5 |
| 20260504191802 | 23 | 0 | 4.8 | 6.4 | 0.00 | 0.00 | 0.00 | 44 | 1009.5 |
| 20260504184802 | 23 | 293 | 6.4 | 6.4 | 0.00 | 0.00 | 0.00 | 45 | 1009.8 |
| 20260504183302 | 22 | 338 | 3.2 | 6.4 | 0.00 | 0.00 | 0.00 | 47 | 1009.8 |
| 20260504181802 | 22 | 270 | 4.8 | 4.8 | 0.00 | 0.00 | 0.00 | 50 | 1009.8 |
| 20260504180302 | 22 | 203 | 4.8 | 4.8 | 0.00 | 0.00 | 0.00 | 51 | 1009.8 |
| 20260504174802 | 21 | 45 | 4.8 | 6.4 | 0.00 | 0.00 | 0.00 | 50 | 1009.8 |
| 20260504173302 | 21 | 203 | 3.2 | 3.2 | 0.00 | 0.00 | 0.00 | 54 | 1009.8 |
| 20260504171802 | 20 | 113 | 3.2 | 4.8 | 0.00 | 0.00 | 0.00 | 55 | 1009.8 |
| 20260504170301 | 20 | 203 | 3.2 | 6.4 | 0.00 | 0.00 | 0.00 | 56 | 1009.8 |
| 20260504150802 | 16 | 23 | 0.0 | 0.0 | 0.00 | 0.00 | 0.00 | 67 | 1009.1 |
| 20260504140802 | 10 | 68 | 0.0 | 0.0 | 0.00 | 0.00 | 0.00 | 85 | 1008.8 |
| 20260504130802 | 8 | 90 | 0.0 | 0.0 | 0.00 | 0.00 | 0.00 | 85 | 1008.5 |
| 20260504120302 | 9 | 113 | 0.0 | 0.0 | 0.00 | 0.00 | 0.00 | 85 | 1008.5 |
| 20260504070302 | 13 | 113 | 0.0 | 0.0 | 0.00 | 0.00 | 0.00 | 85 | 1008.1 |